Location: *
(47.6569°N, 7.4256°E)
Time: 20:06:16
(UTC+00:00)

Feng Yun 1-1 Rocket - Pass Details

Date: 14 December 2019
Orbit: 830 x 933 km, 99.2° (Epoch: 22 January)

Event Time Altitude Azimuth Distance (km) Brightness Sun altitude
Rises 16:26:03 0° 152° (SSE) 3,363 7.3 -7.7°
Reaches altitude 10° 16:28:24 10° 149° (SSE) 2,432 6.6 -8.1°
Maximum altitude 16:33:42 63° 70° (ENE) 929 4.2 -8.9°
Drops below altitude 10° 16:39:04 10° 350° (N) 2,467 6.5 -9.7°
Sets 16:41:28 0° 348° (NNW) 3,416 7.2 -10.1°
